Weather History for Jonesboro, AR

Change the Weather History Date:

Monday, April 8, 2013

  Actual Average Record
Temperature  
Mean Temperature 68 °F 58 °F  
Max Temperature 75 °F 68 °F 87 °F (1924)
Min Temperature 60 °F 47 °F 28 °F (2007)
Degree Days  
Heating Degree Days 0 9  
Month to date heating degree days 93 76  
Since 1 July heating degree days 3336 3496  
Cooling Degree Days 3 1  
Month to date cooling degree days 3 8  
Year to date cooling degree days 3 14  
Growing Degree Days 16 (Base 50)    
Moisture  
Dew Point 56 °F    
Average Humidity 71    
Maximum Humidity 84    
Minimum Humidity 57    
Precipitation  
Precipitation 0.00 in 0.14 in 1.90 in (1919)
Month to date precipitation 0.04 1.17  
Year to date precipitation 11.92 12.82  
Snow  
Snow 0.00 in 0.00 in - ()
Month to date snowfall 0.0 0.0  
Since 1 July snowfall 11.0 4.8  
Snow Depth 0.00 in    
Sea Level Pressure  
Sea Level Pressure 29.88 in    
Wind  
Wind Speed 11 mph (South)    
Max Wind Speed 30 mph    
Max Gust Speed 38 mph    
Visibility 10 miles    
Events      
T = Trace of Precipitation, MM = Missing Value Source: NWS Daily Summary

Daily Weather History Graph

Daily Weather History Graph

Search for Another Location

Airport:

Trip Planner

Search our weather history database for the weather conditions in past years. The results will help you decide how hot, cold, wet, or windy it might be!

Date:

Astronomy

Apr. 08, 2013 Rise Set
Actual Time 6:38 AM CDT 7:30 PM CDT
Civil Twilight 6:12 AM CDT 7:56 PM CDT
Nautical Twilight 5:42 AM CDT 8:27 PM CDT
Astronomical Twilight 5:10 AM CDT 8:59 PM CDT
Moon 5:26 AM CDT (4/8) 6:06 PM CDT (4/8)
Length of Visible Light 13h 43m
Length of Day
12h 51m
Waning Crescent, 3% of the Moon is Illuminated
Apr 8
Waning Crescent
Apr 10
New
Apr 18
First Quarter
Apr 25
Full
May 2
Last Quarter

Hourly Weather History & Observations

Time (CDT) Temp. Dew Point Humidity Pressure Visibility Wind Dir Wind Speed Gust Speed Precip Events Conditions
12:53 AM 60.1 °F 53.1 °F 78% 29.89 in 10.0 mi SSE 3.5 mph - N/A   Overcast
1:53 AM 61.0 °F 53.1 °F 75% 29.89 in 10.0 mi South 3.5 mph - N/A   Overcast
2:53 AM 61.0 °F 53.1 °F 75% 29.87 in 10.0 mi South 3.5 mph - N/A   Overcast
3:53 AM 61.0 °F 53.1 °F 75% 29.86 in 10.0 mi South 6.9 mph - N/A   Overcast
4:53 AM 60.1 °F 54.0 °F 80% 29.86 in 10.0 mi South 6.9 mph - N/A   Overcast
5:53 AM 64.4 °F 55.4 °F 73% 29.87 in 10.0 mi South 10.4 mph 20.7 mph N/A   Overcast
6:53 AM 62.1 °F 55.9 °F 80% 29.89 in 10.0 mi South 9.2 mph 31.1 mph N/A   Overcast
7:53 AM 62.1 °F 55.9 °F 80% 29.92 in 10.0 mi South 9.2 mph - N/A   Overcast
8:53 AM 63.0 °F 57.0 °F 81% 29.92 in 10.0 mi South 10.4 mph - N/A   Overcast
9:53 AM 66.0 °F 57.9 °F 75% 29.92 in 10.0 mi South 11.5 mph - N/A   Scattered Clouds
10:53 AM 71.1 °F 57.9 °F 63% 29.91 in 10.0 mi South 16.1 mph 27.6 mph N/A   Clear
11:53 AM 73.0 °F 57.9 °F 59% 29.90 in 10.0 mi SSW 20.7 mph 28.8 mph N/A   Clear
12:53 PM 73.9 °F 57.9 °F 57% 29.88 in 10.0 mi SSW 23.0 mph 31.1 mph N/A   Partly Cloudy
1:53 PM 73.9 °F 59.0 °F 59% 29.88 in 10.0 mi SSW 21.9 mph 29.9 mph N/A   Mostly Cloudy
2:53 PM 72.0 °F 57.0 °F 59% 29.87 in 10.0 mi SSW 17.3 mph 26.5 mph N/A   Overcast
3:53 PM 72.0 °F 57.9 °F 61% 29.86 in 10.0 mi SSW 15.0 mph - N/A   Overcast
4:53 PM 73.0 °F 59.0 °F 61% 29.84 in 10.0 mi South 15.0 mph - N/A   Overcast
5:53 PM 73.9 °F 59.0 °F 59% 29.84 in 10.0 mi South 13.8 mph - N/A   Mostly Cloudy
6:53 PM 73.0 °F 57.9 °F 59% 29.84 in 10.0 mi South 12.7 mph - N/A   Partly Cloudy
7:53 PM 70.0 °F 57.9 °F 65% 29.85 in 10.0 mi South 6.9 mph - N/A   Clear
8:53 PM 68.0 °F 55.9 °F 65% 29.87 in 10.0 mi South 5.8 mph - N/A   Clear
9:53 PM 64.9 °F 55.0 °F 70% 29.88 in 10.0 mi SE 3.5 mph - N/A   Clear
10:53 PM 66.0 °F 55.0 °F 68% 29.87 in 10.0 mi SE 5.8 mph - N/A   Partly Cloudy
11:53 PM 66.0 °F 55.0 °F 68% 29.87 in 10.0 mi SE 5.8 mph - N/A   Mostly Cloudy